Regional Weather Roundup
Issued by NWS

Home | Current Version | Previous Version | Text Only | Print | Product List | Glossary Off
Versions: 1 2 3 4 5 6 7 8 9 10 11 12 13 14 15 16 17 18 19 20 21 22 23 24 25 26 27 28 29 30 31 32 33 34 35 36 37 38 39 40 41 42 43 44 45 46 47 48 49 50

000
ASUS43 KMKX 290400
RWRWI

WISCONSIN REGIONAL WEATHER ROUNDUP
NATIONAL WEATHER SERVICE MILWAUKEE/SULLIVAN WI
1100 PM CDT FRI AUG 28 2015

NOTE: "FAIR" INDICATES FEW OR NO CLOUDS BELOW 12,000 FEET WITH NO
SIGNIFICANT WEATHER AND/OR OBSTRUCTIONS TO VISIBILITY.

WIZ001-002-006>008-014>016-023>028-290500-
NORTHWEST WISCONSIN

CITY           SKY/WX    TMP DP  RH WIND       PRES   REMARKS
SUPERIOR ARPT  CLEAR     67  62  85 SW12G17   29.98S
ASHLAND        CLEAR     66  62  87 S13       30.00S
HAYWARD        CLOUDY    65  59  81 SW8       30.05F
SIREN          CLEAR     62  56  81 S6        30.06R
CUMBERLAND     CLEAR     55  55 100 CALM      30.07F
RICE LAKE      CLEAR     59  55  88 CALM      30.08F
CHETEK         CLEAR     59  58  96 CALM      30.07S
LADYSMITH      CLEAR     58  56  92 CALM      30.10R
EAU CLAIRE     FAIR      56  54  93 NE6       30.06F
MENOMONIE      CLEAR     57  56  96 E5        30.06F
NEW RICHMOND   CLEAR     56  55  98 CALM      30.06S
OSCEOLA        CLEAR     57  57 100 SE6       30.08F
$$

WIZ003>005-009-010-017-018-290500-
NORTH CENTRAL WISCONSIN

CITY           SKY/WX    TMP DP  RH WIND       PRES   REMARKS
MANITOWISH WTR CLOUDY    62  62 100 SW10      30.03F
ARBOR VITAE    MOCLDY    62  60  93 SW7       30.06F
WOODRUFF       MOCLDY    62  60  93 SW7       30.06F
RHINELANDER    CLOUDY    62  58  86 SW14G26   30.08F
EAGLE RIVER    CLOUDY    62  61  97 SW8       30.05F
LAND O LAKES   PTCLDY    62  61  95 SW6       30.05F
PHILLIPS       CLOUDY    61  58  91 SW6       30.07F
TOMAHAWK       CLOUDY    60  57  90 S5        30.11R
MEDFORD        CLOUDY    58  56  95 S3        30.10S
MERRILL        CLOUDY    60  58  96 SW3       30.11R
$$

WIZ029-030-035-036-043>047-290500-
CENTRAL WISCONSIN

CITY           SKY/WX    TMP DP  RH WIND       PRES   REMARKS
WAUSAU         CLOUDY    59  55  87 S10       30.09F
MOSINEE        CLOUDY    55  55 100 SE10      30.11F
MARSHFIELD     MOCLDY    58  53  84 SE6       30.09S
STEVENS POINT  CLOUDY    56  55  94 SE6       30.11F
WAUPACA        RAIN      59  57  94 S3        30.13F
WAUTOMA        NOT AVBL
WISC RAPIDS    CLOUDY    58  54  86 SE6       30.10F
CAMP DOUGLAS   CLOUDY    57  57 100 NE2       30.08R
$$

WIZ011>013-019>022-031-037>040-048>050-290500-
NORTHEAST WISCONSIN

CITY           SKY/WX    TMP DP  RH WIND       PRES   REMARKS
ANTIGO         CLOUDY    58  58  99 SW14      30.11S FOG
SHAWANO        DRIZZLE   61  58  90 SW9       30.11F
OCONTO         CLOUDY    60  60 100 SW5       30.10S
STURGEON BAY   CLOUDY    63  57  82 SW8       30.13S
GREEN BAY      RAIN      62  59  90 SW10      30.13R FOG
MANITOWOC      NOT AVBL
APPLETON       LGT RAIN  59  59 100 VRB5      30.12S
CLINTONVILLE   DRIZZLE   59  55  88 SW9       30.12S
OSHKOSH        HVY RAIN  59  56  89 SE3       30.13F FOG
$$

WIZ032>034-041-042-053>061-290500-
SOUTHWEST WISCONSIN

CITY           SKY/WX    TMP DP  RH WIND       PRES   REMARKS
LA CROSSE      CLOUDY    60  57  89 SE6       30.03F
SPARTA         CLOUDY    57  56  95 E7        30.06F
VIROQUA        CLOUDY    57  57 100 E9        30.04F
BOSCOBEL       RAIN      63  61  93 NE6       30.03S FOG
PRAIRIE DU CHI RAIN      63  61  94 NE6       30.00S
PLATTEVILLE    CLOUDY    64  64  97 SE12G20   30.00F
$$

WIZ056-057-062-063-064-067-068-290500-
SOUTH CENTRAL WISCONSIN

CITY           SKY/WX    TMP DP  RH WIND       PRES   REMARKS
REEDSBURG      RAIN      58  57  99 NE6       30.07F
BARABOO/DELLS  RAIN      57  55  93 NE9       30.08F
LONE ROCK      HVY RAIN  63  60  90 NE9       30.05F FOG
MINERAL POINT  HVY RAIN  63  63 100 E8        30.03F
MADISON        LGT RAIN  64  62  93 E10       30.05F
MIDDLETON      CLOUDY    65  64  99 E7        30.05F
WATERTOWN      LGT RAIN  60  60 100 E7        30.08F
MONROE         RAIN      63  61  94 SE21      30.01F
JANESVILLE     RAIN      64  63  94 E9        30.06F
$$

WIZ051-052-058>065-066-070>072-290500-
SOUTHEAST WISCONSIN

CITY           SKY/WX    TMP DP  RH WIND       PRES   REMARKS
MILWAUKEE      LGT RAIN  61  59  93 E6        30.11S FOG
WAUKESHA       LGT RAIN  61  57  88 E6        30.11F
MILWAUKEE/TIMM DRIZZLE   63  59  88 E3        30.11S
RACINE         FOG       62  60  93 NE3       30.13R VSB 3/4
BURLINGTON     LGT RAIN  62  61  97 E5        30.10S
KENOSHA        CLOUDY    64  61  90 NE3       30.11R FOG
FOND DU LAC    LGT RAIN  60  57  89 N7        30.11F
SHEBOYGAN      LGT RAIN  60  58  92 CALM      30.13S
WEST BEND      LGT RAIN  59  55  88 CALM      30.11R
JUNEAU         RAIN      58  56  92 NE8       30.11F
$$

LSZ147-162-290500-
LAKE SUPERIOR

STATION/POSITION TIME  TEMP    WIND        PRES    WAVE
                       AIR SEA DIR/SP/G            HT/PER
                 (UTC) (F)     (DEG/KT/KT) (MB)    (FT/S)
W MID LAKE BUOY  0250   62 56  210/ 16/ 17 1013.2F   1/ 3
DEVILS ISLAND    0300   67     210/ 13/ 18 1013.6F
PORT WING        0310   70     200/  9/ 16 1014.9S
SAXON HARBOR     0300   69     200/  6/ 11 1014.9S
$$

LMZ867-665-643>646-290500-
LAKE MICHIGAN

STATION/POSITION TIME  TEMP    WIND        PRES    WAVE
                       AIR SEA DIR/SP/G            HT/PER
                 (UTC) (F)     (DEG/KT/KT) (MB)    (FT/S)
CHAMBERS ISLAND  0300   64     190/  9/ 15 1018.3S
S GREEN BAY BUOY 0330   63 62  240/  8/ 10 1020.7R
N MID LAKE BUOY  0250   64 64  240/ 14/ 16 1018.2R   3/ 5
NORTHPORT PIER   0300   64      CALM  /  6 1018.3R
SISTER BAY       0304   66     220/ 12/ 17   N/A
ALGOMA LAKESHORE 0214          210/  4/  6   N/A
SHEBOYGAN LAKESH 0300   62     190/ 12/ 13 1020.4R
PORT WASHINGTON  0340   56      40/  8/  9 1020.0F
ATWATER BUOY     0300   52 48   CALM  /  2 1020.7R
MILWAUKEE LAKESH 0300   55      40/  8/  8   N/A
S MID LAKE BUOY  0250   68 69   70/  8/  8 1019.2S
KENOSHA   LAKESH 0300   58      20/  7/  8 1019.0R
$$

TC  - TEMPERATURE IN CELSIUS
VSB - VISIBILITY IN STATUTE MILES
WCI - WIND CHILL INDEX
HX  - HEAT INDEX




USA.gov is the U.S. government's official web portal to all federal, state and local government web resources and services.